| time (UTC) | temp C | wind direction | speed KPH | gust KPH | rain 1hr cm | rain 24hr cm | rain mn cm | humidity % | barometer mb |
| 20260508062504 | 7 | 278 | 3.2 | 4.8 | 0.00 | 0.15 | 0.00 | 69 | 1017.7 |
| 20260508062004 | 7 | 282 | 4.8 | 8.0 | 0.00 | 0.15 | 0.00 | 69 | 1017.8 |
| 20260508061503 | 7 | 275 | 1.6 | 4.8 | 0.00 | 0.15 | 0.00 | 70 | 1017.7 |
| 20260508061003 | 7 | 278 | 6.4 | 8.0 | 0.00 | 0.15 | 0.00 | 70 | 1017.7 |
| 20260508060503 | 7 | 279 | 3.2 | 8.0 | 0.00 | 0.15 | 0.00 | 71 | 1017.7 |
| 20260508060003 | 7 | 288 | 1.6 | 4.8 | 0.00 | 0.15 | 0.00 | 70 | 1017.7 |
| 20260508055004 | 7 | 246 | 3.2 | 4.8 | 0.00 | 0.15 | 0.00 | 71 | 1017.6 |
| 20260508054503 | 7 | 312 | 4.8 | 4.8 | 0.00 | 0.15 | 0.00 | 71 | 1017.5 |
| 20260508053504 | 7 | 243 | 4.8 | 4.8 | 0.00 | 0.15 | 0.00 | 71 | 1017.4 |
| 20260508052503 | 7 | 253 | 4.8 | 8.0 | 0.00 | 0.15 | 0.00 | 72 | 1017.3 |
| 20260508052003 | 8 | 272 | 4.8 | 8.0 | 0.00 | 0.15 | 0.00 | 71 | 1017.2 |
| 20260508051503 | 8 | 263 | 8.0 | 8.0 | 0.00 | 0.15 | 0.00 | 71 | 1017.1 |
| 20260508050503 | 8 | 252 | 3.2 | 8.0 | 0.00 | 0.15 | 0.00 | 69 | 1017.1 |
| 20260508050003 | 8 | 303 | 8.0 | 8.0 | 0.00 | 0.15 | 0.00 | 71 | 1017.0 |
| 20260508045504 | 8 | 260 | 4.8 | 4.8 | 0.00 | 0.15 | 0.00 | 71 | 1016.9 |
| 20260508044504 | 8 | 268 | 4.8 | 4.8 | 0.00 | 0.15 | 0.00 | 70 | 1016.8 |
| 20260508044003 | 8 | 236 | 4.8 | 4.8 | 0.00 | 0.15 | 0.00 | 69 | 1016.8 |
| 20260508043503 | 8 | 289 | 4.8 | 9.7 | 0.00 | 0.15 | 0.00 | 69 | 1016.7 |
| 20260508042503 | 8 | 337 | 4.8 | 8.0 | 0.00 | 0.15 | 0.00 | 70 | 1016.7 |
| 20260508042004 | 8 | 280 | 8.0 | 8.0 | 0.00 | 0.15 | 0.00 | 69 | 1016.5 |
| 20260508041503 | 9 | 264 | 4.8 | 4.8 | 0.00 | 0.15 | 0.00 | 69 | 1016.5 |
| 20260508041004 | 9 | 279 | 4.8 | 4.8 | 0.00 | 0.15 | 0.00 | 68 | 1016.5 |
| 20260508040503 | 9 | 285 | 3.2 | 8.0 | 0.00 | 0.15 | 0.00 | 68 | 1016.5 |
| 20260508040003 | 9 | 253 | 1.6 | 8.0 | 0.00 | 0.15 | 0.00 | 67 | 1016.3 |
| 20260508035503 | 10 | 172 | 0.0 | 0.0 | 0.00 | 0.15 | 0.15 | 67 | 1016.2 |
| 20260508035004 | 10 | 172 | 0.0 | 3.2 | 0.00 | 0.15 | 0.15 | 66 | 1016.1 |
| 20260508034503 | 10 | 181 | 0.0 | 3.2 | 0.00 | 0.15 | 0.15 | 65 | 1016.1 |
| 20260508033503 | 10 | 233 | 1.6 | 4.8 | 0.00 | 0.15 | 0.15 | 66 | 1016.2 |
| 20260508032504 | 10 | 173 | 4.8 | 8.0 | 0.00 | 0.15 | 0.15 | 66 | 1016.2 |
| 20260508032004 | 10 | 290 | 3.2 | 4.8 | 0.00 | 0.15 | 0.15 | 65 | 1016.1 |
| 20260508031504 | 10 | 264 | 3.2 | 4.8 | 0.00 | 0.18 | 0.15 | 68 | 1016.0 |
| 20260508030503 | 10 | 201 | 4.8 | 8.0 | 0.00 | 0.18 | 0.15 | 67 | 1016.0 |
| 20260508030004 | 10 | 249 | 1.6 | 4.8 | 0.00 | 0.18 | 0.15 | 68 | 1015.9 |
| 20260508025503 | 10 | 261 | 3.2 | 8.0 | 0.00 | 0.18 | 0.15 | 67 | 1015.9 |
| 20260508025004 | 10 | 293 | 3.2 | 11.3 | 0.00 | 0.18 | 0.15 | 68 | 1015.8 |
| 20260508024504 | 10 | 318 | 3.2 | 8.0 | 0.00 | 0.18 | 0.15 | 67 | 1015.8 |
| 20260508024004 | 10 | 243 | 3.2 | 4.8 | 0.00 | 0.18 | 0.15 | 69 | 1015.8 |
| 20260508023503 | 10 | 264 | 8.0 | 4.8 | 0.00 | 0.18 | 0.15 | 69 | 1015.8 |
| 20260508023003 | 10 | 292 | 3.2 | 8.0 | 0.00 | 0.23 | 0.15 | 68 | 1015.7 |
| 20260508022503 | 10 | 260 | 4.8 | 4.8 | 0.00 | 0.28 | 0.15 | 68 | 1015.7 |
| 20260508022004 | 10 | 290 | 6.4 | 8.0 | 0.00 | 0.30 | 0.15 | 67 | 1015.5 |
| 20260508021503 | 11 | 195 | 3.2 | 4.8 | 0.00 | 0.30 | 0.15 | 66 | 1015.5 |
| 20260508021004 | 11 | 198 | 4.8 | 8.0 | 0.00 | 0.33 | 0.15 | 65 | 1015.4 |
| 20260508020504 | 11 | 218 | 0.0 | 3.2 | 0.00 | 0.33 | 0.15 | 65 | 1015.3 |
| 20260508020003 | 11 | 279 | 0.0 | 3.2 | 0.00 | 0.33 | 0.15 | 64 | 1015.2 |
| 20260508015504 | 11 | 282 | 1.6 | 16.1 | 0.00 | 0.33 | 0.15 | 63 | 1015.1 |
| 20260508015004 | 11 | 290 | 1.6 | 4.8 | 0.00 | 0.33 | 0.15 | 65 | 1015.0 |
| 20260508014504 | 11 | 167 | 1.6 | 4.8 | 0.00 | 0.33 | 0.15 | 65 | 1014.9 |
| 20260508014003 | 11 | 219 | 0.0 | 4.8 | 0.00 | 0.33 | 0.15 | 64 | 1014.7 |
| 20260508013504 | 11 | 189 | 3.2 | 4.8 | 0.03 | 0.33 | 0.15 | 67 | 1014.6 |
| 20260508013004 | 11 | 180 | 1.6 | 3.2 | 0.03 | 0.33 | 0.15 | 67 | 1014.5 |
| 20260508012503 | 11 | 270 | 0.0 | 4.8 | 0.03 | 0.33 | 0.15 | 66 | 1014.5 |
| 20260508012004 | 11 | 235 | 3.2 | 8.0 | 0.03 | 0.33 | 0.15 | 65 | 1014.4 |
| 20260508011504 | 11 | 203 | 1.6 | 8.0 | 0.03 | 0.33 | 0.15 | 64 | 1014.5 |
| 20260508011003 | 11 | 294 | 4.8 | 9.7 | 0.03 | 0.33 | 0.15 | 62 | 1014.4 |
| 20260508010503 | 12 | 201 | 3.2 | 8.0 | 0.03 | 0.33 | 0.15 | 61 | 1014.2 |
| 20260508010004 | 12 | 293 | 8.0 | 14.5 | 0.03 | 0.33 | 0.15 | 58 | 1014.2 |
| 20260508005504 | 12 | 140 | 0.0 | 0.0 | 0.03 | 0.33 | 0.15 | 59 | 1014.2 |
| 20260508005004 | 12 | 152 | 3.2 | 9.7 | 0.03 | 0.33 | 0.15 | 58 | 1014.1 |
| 20260508004503 | 12 | 1 | 1.6 | 12.9 | 0.03 | 0.33 | 0.15 | 57 | 1014.2 |
| 20260508003504 | 12 | 217 | 1.6 | 8.0 | 0.00 | 0.30 | 0.13 | 55 | 1014.1 |
| 20260508003005 | 12 | 242 | 9.7 | 16.1 | 0.00 | 0.30 | 0.13 | 56 | 1014.2 |
| 20260508002504 | 12 | 292 | 3.2 | 11.3 | 0.00 | 0.30 | 0.13 | 56 | 1014.0 |
| 20260508002003 | 12 | 224 | 11.3 | 22.5 | 0.00 | 0.30 | 0.13 | 55 | 1014.1 |
| 20260508001504 | 13 | 254 | 4.8 | 9.7 | 0.00 | 0.30 | 0.13 | 54 | 1014.0 |
| 20260508001004 | 13 | 312 | 9.7 | 16.1 | 0.00 | 0.30 | 0.13 | 53 | 1014.0 |
| 20260508000504 | 13 | 336 | 12.9 | 19.3 | 0.00 | 0.30 | 0.13 | 54 | 1014.0 |
| 20260507235503 | 13 | 5 | 6.4 | 12.9 | 0.00 | 0.30 | 0.13 | 53 | 1013.8 |
| 20260507234504 | 13 | 294 | 4.8 | 14.5 | 0.00 | 0.30 | 0.13 | 53 | 1013.7 |
| 20260507234004 | 13 | 283 | 9.7 | 25.7 | 0.00 | 0.30 | 0.13 | 52 | 1013.6 |
| 20260507233504 | 13 | 235 | 6.4 | 22.5 | 0.00 | 0.30 | 0.13 | 53 | 1013.6 |
| 20260507233003 | 13 | 222 | 8.0 | 19.3 | 0.00 | 0.30 | 0.13 | 55 | 1013.5 |
| 20260507232503 | 13 | 70 | 4.8 | 12.9 | 0.00 | 0.30 | 0.13 | 56 | 1013.4 |
| 20260507231504 | 14 | 273 | 3.2 | 9.7 | 0.00 | 0.30 | 0.13 | 54 | 1013.3 |
| 20260507230504 | 14 | 170 | 0.0 | 8.0 | 0.00 | 0.30 | 0.13 | 55 | 1013.2 |
| 20260507230003 | 15 | 321 | 1.6 | 16.1 | 0.00 | 0.30 | 0.13 | 55 | 1013.1 |
| 20260507225504 | 15 | 217 | 8.0 | 20.9 | 0.00 | 0.30 | 0.13 | 54 | 1013.0 |
| 20260507225004 | 15 | 176 | 6.4 | 9.7 | 0.00 | 0.30 | 0.13 | 57 | 1013.0 |
| 20260507224504 | 15 | 188 | 8.0 | 11.3 | 0.00 | 0.30 | 0.13 | 55 | 1012.8 |
| 20260507224004 | 15 | 135 | 9.7 | 11.3 | 0.00 | 0.30 | 0.13 | 56 | 1012.8 |
| 20260507222503 | 15 | 289 | 9.7 | 14.5 | 0.00 | 0.30 | 0.13 | 56 | 1012.7 |
| 20260507222004 | 15 | 237 | 4.8 | 14.5 | 0.00 | 0.30 | 0.13 | 57 | 1012.7 |
| 20260507220504 | 15 | 62 | 9.7 | 14.5 | 0.00 | 0.30 | 0.13 | 60 | 1012.4 |
| 20260507220004 | 15 | 119 | 3.2 | 8.0 | 0.00 | 0.30 | 0.13 | 60 | 1012.3 |
| 20260507215504 | 15 | 227 | 4.8 | 19.3 | 0.00 | 0.30 | 0.13 | 62 | 1012.2 |
| 20260507214503 | 15 | 77 | 1.6 | 9.7 | 0.00 | 0.30 | 0.13 | 63 | 1012.1 |
| 20260507214003 | 15 | 0 | 6.4 | 9.7 | 0.00 | 0.30 | 0.13 | 68 | 1012.2 |
| 20260507213504 | 15 | 13 | 0.0 | 0.0 | 0.00 | 0.30 | 0.13 | 70 | 1012.3 |
| 20260507212004 | 14 | 202 | 0.0 | 3.2 | 0.00 | 0.30 | 0.13 | 70 | 1012.3 |
| 20260507211504 | 14 | 209 | 0.0 | 0.0 | 0.00 | 0.33 | 0.13 | 70 | 1012.3 |
| 20260507211003 | 14 | 209 | 0.0 | 0.0 | 0.00 | 0.33 | 0.13 | 69 | 1012.3 |
| 20260507210504 | 14 | 209 | 0.0 | 8.0 | 0.00 | 0.33 | 0.13 | 68 | 1012.2 |
| 20260507210005 | 14 | 213 | 3.2 | 11.3 | 0.00 | 0.33 | 0.13 | 69 | 1012.2 |
| 20260507205004 | 14 | 191 | 8.0 | 11.3 | 0.00 | 0.33 | 0.13 | 68 | 1012.0 |
| 20260507204504 | 14 | 160 | 1.6 | 8.0 | 0.00 | 0.33 | 0.13 | 69 | 1011.9 |
| 20260507203504 | 14 | 191 | 6.4 | 12.9 | 0.00 | 0.33 | 0.13 | 71 | 1011.9 |
| 20260507202504 | 14 | 196 | 9.7 | 12.9 | 0.00 | 0.33 | 0.13 | 73 | 1011.9 |
| 20260507201504 | 13 | 329 | 0.0 | 4.8 | 0.00 | 0.33 | 0.13 | 72 | 1012.0 |
| 20260507201004 | 13 | 25 | 0.0 | 0.0 | 0.00 | 0.33 | 0.13 | 71 | 1012.1 |
| 20260507200504 | 13 | 25 | 1.6 | 9.7 | 0.00 | 0.33 | 0.13 | 70 | 1012.2 |
| 20260507200004 | 13 | 175 | 8.0 | 9.7 | 0.00 | 0.33 | 0.13 | 72 | 1012.4 |
| 20260507195503 | 13 | 239 | 4.8 | 12.9 | 0.00 | 0.33 | 0.13 | 73 | 1012.5 |
| 20260507195004 | 13 | 246 | 4.8 | 16.1 | 0.00 | 0.33 | 0.13 | 73 | 1012.6 |
| 20260507194004 | 13 | 203 | 4.8 | 9.7 | 0.00 | 0.33 | 0.13 | 75 | 1013.0 |
| 20260507193504 | 13 | 232 | 1.6 | 8.0 | 0.00 | 0.33 | 0.13 | 76 | 1013.0 |
| 20260507193004 | 13 | 205 | 0.0 | 8.0 | 0.00 | 0.33 | 0.13 | 74 | 1013.2 |
| 20260507192503 | 13 | 34 | 0.0 | 8.0 | 0.00 | 0.33 | 0.13 | 75 | 1013.2 |
| 20260507191504 | 13 | 244 | 9.7 | 16.1 | 0.00 | 0.33 | 0.13 | 74 | 1013.4 |
| 20260507191004 | 13 | 187 | 8.0 | 11.3 | 0.00 | 0.33 | 0.13 | 76 | 1013.3 |
| 20260507190504 | 13 | 181 | 0.0 | 3.2 | 0.00 | 0.33 | 0.13 | 77 | 1013.3 |
| 20260507190005 | 13 | 165 | 0.0 | 8.0 | 0.00 | 0.33 | 0.13 | 78 | 1013.4 |
| 20260507185504 | 13 | 136 | 0.0 | 3.2 | 0.03 | 0.33 | 0.13 | 81 | 1013.5 |
| 20260507185004 | 12 | 126 | 0.0 | 0.0 | 0.03 | 0.33 | 0.13 | 81 | 1013.6 |
| 20260507184504 | 12 | 126 | 0.0 | 0.0 | 0.03 | 0.33 | 0.13 | 80 | 1013.6 |
| 20260507183504 | 13 | 126 | 0.0 | 0.0 | 0.03 | 0.33 | 0.13 | 80 | 1013.6 |
| 20260507183003 | 12 | 126 | 0.0 | 0.0 | 0.03 | 0.33 | 0.13 | 81 | 1013.7 |
| 20260507182502 | 12 | 151 | 1.6 | 1.6 | 0.03 | 0.33 | 0.13 | 80 | 1013.6 |
| 20260507182002 | 12 | 123 | 0.0 | 0.0 | 0.03 | 0.33 | 0.13 | 81 | 1013.6 |
| 20260507181502 | 12 | 123 | 0.0 | 0.0 | 0.03 | 0.33 | 0.13 | 81 | 1013.5 |
| 20260507181002 | 12 | 123 | 0.0 | 1.6 | 0.03 | 0.33 | 0.13 | 81 | 1013.5 |
| 20260507180502 | 12 | 167 | 1.6 | 3.2 | 0.10 | 0.33 | 0.13 | 80 | 1013.6 |
| 20260507180002 | 12 | 185 | 0.0 | 0.0 | 0.13 | 0.33 | 0.13 | 81 | 1013.6 |
| 20260507175503 | 12 | 185 | 0.0 | 0.0 | 0.10 | 0.30 | 0.10 | 82 | 1013.6 |
| 20260507175003 | 12 | 182 | 1.6 | 4.8 | 0.10 | 0.30 | 0.10 | 83 | 1013.7 |
| 20260507174003 | 12 | 297 | 0.0 | 4.8 | 0.10 | 0.30 | 0.10 | 81 | 1013.7 |
| 20260507173503 | 12 | 255 | 0.0 | 4.8 | 0.10 | 0.30 | 0.10 | 82 | 1013.7 |
| 20260507172503 | 12 | 275 | 3.2 | 4.8 | 0.10 | 0.30 | 0.10 | 81 | 1013.8 |
| 20260507171503 | 12 | 62 | 0.0 | 0.0 | 0.10 | 0.30 | 0.10 | 80 | 1013.6 |
| 20260507171002 | 12 | 62 | 1.6 | 11.3 | 0.10 | 0.30 | 0.10 | 78 | 1013.8 |
| 20260507170002 | 12 | 61 | 8.0 | 14.5 | 0.00 | 0.20 | 0.00 | 76 | 1013.7 |
| 20260507165503 | 12 | 105 | 6.4 | 9.7 | 0.00 | 0.20 | 0.00 | 75 | 1013.8 |
| 20260507165003 | 12 | 324 | 3.2 | 11.3 | 0.00 | 0.20 | 0.00 | 75 | 1013.8 |
| 20260507164502 | 12 | 113 | 4.8 | 11.3 | 0.00 | 0.23 | 0.00 | 74 | 1013.8 |
| 20260507164003 | 12 | 32 | 4.8 | 9.7 | 0.00 | 0.23 | 0.00 | 74 | 1013.8 |
| 20260507163503 | 12 | 41 | 3.2 | 9.7 | 0.00 | 0.23 | 0.00 | 74 | 1013.6 |
| 20260507162502 | 12 | 49 | 0.0 | 11.3 | 0.00 | 0.23 | 0.00 | 74 | 1013.8 |
| 20260507162002 | 13 | 81 | 1.6 | 12.9 | 0.00 | 0.23 | 0.00 | 75 | 1013.7 |
| 20260507161503 | 13 | 90 | 1.6 | 8.0 | 0.00 | 0.23 | 0.00 | 74 | 1013.6 |
| 20260507161003 | 13 | 259 | 3.2 | 8.0 | 0.00 | 0.23 | 0.00 | 75 | 1013.7 |
| 20260507160003 | 13 | 17 | 4.8 | 9.7 | 0.00 | 0.23 | 0.00 | 75 | 1013.8 |
| 20260507155503 | 13 | 151 | 6.4 | 14.5 | 0.00 | 0.23 | 0.00 | 75 | 1013.8 |
| 20260507155003 | 13 | 59 | 8.0 | 11.3 | 0.00 | 0.23 | 0.00 | 75 | 1013.9 |
| 20260507154503 | 13 | 81 | 4.8 | 8.0 | 0.00 | 0.23 | 0.00 | 76 | 1014.0 |
| 20260507154002 | 13 | 75 | 3.2 | 4.8 | 0.00 | 0.23 | 0.00 | 77 | 1014.1 |
| 20260507153502 | 13 | 28 | 1.6 | 8.0 | 0.00 | 0.23 | 0.00 | 76 | 1014.1 |
| 20260507153002 | 13 | 133 | 0.0 | 0.0 | 0.00 | 0.23 | 0.00 | 76 | 1014.1 |
| 20260507152502 | 13 | 133 | 1.6 | 8.0 | 0.00 | 0.23 | 0.00 | 76 | 1014.1 |
| 20260507152003 | 13 | 50 | 9.7 | 11.3 | 0.00 | 0.23 | 0.00 | 76 | 1014.0 |
| 20260507151502 | 13 | 18 | 1.6 | 9.7 | 0.00 | 0.23 | 0.00 | 77 | 1014.0 |
| 20260507151002 | 13 | 90 | 4.8 | 11.3 | 0.00 | 0.23 | 0.00 | 77 | 1014.0 |
| 20260507150003 | 13 | 113 | 4.8 | 14.5 | 0.00 | 0.23 | 0.00 | 76 | 1014.0 |
| 20260507145503 | 13 | 116 | 4.8 | 9.7 | 0.00 | 0.23 | 0.00 | 77 | 1013.9 |
| 20260507145003 | 13 | 58 | 4.8 | 9.7 | 0.00 | 0.23 | 0.00 | 76 | 1013.8 |
| 20260507144002 | 13 | 68 | 1.6 | 4.8 | 0.00 | 0.23 | 0.00 | 76 | 1013.8 |
| 20260507143502 | 13 | 178 | 0.0 | 4.8 | 0.00 | 0.23 | 0.00 | 77 | 1013.7 |
| 20260507142503 | 13 | 274 | 3.2 | 8.0 | 0.00 | 0.23 | 0.00 | 77 | 1013.7 |
| 20260507142003 | 13 | 246 | 4.8 | 8.0 | 0.00 | 0.23 | 0.00 | 78 | 1013.7 |
| 20260507141503 | 14 | 219 | 0.0 | 1.6 | 0.00 | 0.23 | 0.00 | 78 | 1013.7 |
| 20260507141003 | 14 | 216 | 1.6 | 9.7 | 0.00 | 0.23 | 0.00 | 77 | 1013.9 |
| 20260507140503 | 14 | 155 | 3.2 | 8.0 | 0.00 | 0.23 | 0.00 | 77 | 1013.9 |
| 20260507140003 | 14 | 66 | 0.0 | 0.0 | 0.00 | 0.23 | 0.00 | 79 | 1013.5 |
| 20260507135502 | 14 | 66 | 0.0 | 0.0 | 0.00 | 0.23 | 0.00 | 79 | 1013.4 |
| 20260507135003 | 14 | 66 | 0.0 | 0.0 | 0.00 | 0.25 | 0.00 | 79 | 1013.5 |
| 20260507134003 | 14 | 66 | 0.0 | 0.0 | 0.00 | 0.25 | 0.00 | 78 | 1014.1 |
| 20260507133503 | 14 | 66 | 0.0 | 3.2 | 0.00 | 0.28 | 0.00 | 78 | 1014.1 |
| 20260507133003 | 14 | 286 | 3.2 | 4.8 | 0.00 | 0.28 | 0.00 | 79 | 1014.0 |
| 20260507132003 | 14 | 49 | 1.6 | 3.2 | 0.00 | 0.28 | 0.00 | 78 | 1014.0 |
| 20260507131502 | 14 | 234 | 4.8 | 11.3 | 0.00 | 0.28 | 0.00 | 79 | 1014.0 |
| 20260507131003 | 14 | 124 | 0.0 | 3.2 | 0.00 | 0.28 | 0.00 | 79 | 1014.2 |
| 20260507130503 | 14 | 181 | 3.2 | 9.7 | 0.00 | 0.28 | 0.00 | 79 | 1014.2 |
| 20260507125503 | 14 | 222 | 1.6 | 9.7 | 0.00 | 0.30 | 0.00 | 80 | 1013.8 |
| 20260507125003 | 14 | 130 | 0.0 | 4.8 | 0.00 | 0.30 | 0.00 | 79 | 1013.9 |
| 20260507124503 | 13 | 286 | 1.6 | 8.0 | 0.00 | 0.30 | 0.00 | 80 | 1014.0 |
| 20260507123003 | 13 | 304 | 3.2 | 9.7 | 0.00 | 0.30 | 0.00 | 80 | 1014.1 |
| 20260507122004 | 13 | 157 | 1.6 | 4.8 | 0.00 | 0.30 | 0.00 | 80 | 1014.0 |
| 20260507121503 | 13 | 272 | 1.6 | 9.7 | 0.00 | 0.30 | 0.00 | 80 | 1014.1 |
| 20260507120003 | 13 | 336 | 11.3 | 14.5 | 0.00 | 0.30 | 0.00 | 79 | 1014.1 |
| 20260507115503 | 13 | 310 | 4.8 | 9.7 | 0.00 | 0.30 | 0.00 | 80 | 1014.0 |
| 20260507114503 | 13 | 174 | 0.0 | 3.2 | 0.00 | 0.30 | 0.00 | 79 | 1013.9 |
| 20260507114003 | 13 | 7 | 1.6 | 9.7 | 0.00 | 0.30 | 0.00 | 78 | 1013.8 |
| 20260507113503 | 13 | 254 | 3.2 | 12.9 | 0.00 | 0.30 | 0.00 | 78 | 1013.8 |
| 20260507113003 | 13 | 355 | 1.6 | 3.2 | 0.00 | 0.30 | 0.00 | 79 | 1013.7 |
| 20260507112503 | 13 | 338 | 1.6 | 8.0 | 0.00 | 0.30 | 0.00 | 79 | 1013.5 |
| 20260507112003 | 13 | 1 | 0.0 | 1.6 | 0.00 | 0.30 | 0.00 | 79 | 1013.4 |
| 20260507111503 | 13 | 10 | 4.8 | 11.3 | 0.00 | 0.30 | 0.00 | 80 | 1013.5 |
| 20260507111003 | 13 | 50 | 3.2 | 8.0 | 0.00 | 0.30 | 0.00 | 81 | 1013.4 |
| 20260507110503 | 14 | 191 | 0.0 | 0.0 | 0.00 | 0.30 | 0.00 | 82 | 1013.3 |
| 20260507105503 | 13 | 191 | 0.0 | 0.0 | 0.00 | 0.30 | 0.00 | 82 | 1013.4 |
| 20260507105004 | 13 | 194 | 4.8 | 4.8 | 0.00 | 0.30 | 0.00 | 81 | 1013.4 |
| 20260507104503 | 13 | 263 | 4.8 | 11.3 | 0.00 | 0.30 | 0.00 | 82 | 1013.3 |
| 20260507104003 | 14 | 31 | 0.0 | 3.2 | 0.00 | 0.30 | 0.00 | 83 | 1013.2 |
| 20260507103503 | 14 | 13 | 3.2 | 8.0 | 0.00 | 0.30 | 0.00 | 82 | 1013.1 |
| 20260507103003 | 14 | 338 | 3.2 | 8.0 | 0.00 | 0.30 | 0.00 | 82 | 1013.1 |
| 20260507102503 | 14 | 63 | 4.8 | 8.0 | 0.00 | 0.30 | 0.00 | 82 | 1013.2 |
| 20260507102003 | 14 | 2 | 3.2 | 9.7 | 0.00 | 0.30 | 0.00 | 82 | 1013.1 |
| 20260507101503 | 14 | 291 | 0.0 | 1.6 | 0.00 | 0.30 | 0.00 | 82 | 1013.2 |
| 20260507101003 | 14 | 337 | 4.8 | 14.5 | 0.00 | 0.30 | 0.00 | 82 | 1013.3 |
| 20260507100503 | 14 | 334 | 0.0 | 3.2 | 0.00 | 0.30 | 0.00 | 82 | 1013.2 |
| 20260507100003 | 14 | 224 | 6.4 | 11.3 | 0.00 | 0.30 | 0.00 | 83 | 1013.1 |
| 20260507095004 | 14 | 47 | 1.6 | 8.0 | 0.00 | 0.30 | 0.00 | 83 | 1013.0 |
| 20260507094503 | 14 | 39 | 1.6 | 9.7 | 0.00 | 0.30 | 0.00 | 84 | 1013.3 |
| 20260507094003 | 14 | 182 | 1.6 | 8.0 | 0.00 | 0.30 | 0.00 | 84 | 1013.4 |
| 20260507093503 | 14 | 39 | 4.8 | 11.3 | 0.00 | 0.30 | 0.00 | 84 | 1012.8 |
| 20260507093003 | 14 | 6 | 12.9 | 12.9 | 0.00 | 0.30 | 0.00 | 84 | 1013.0 |
| 20260507092004 | 15 | 237 | 0.0 | 0.0 | 0.00 | 0.30 | 0.00 | 85 | 1013.4 |
| 20260507091503 | 15 | 237 | 0.0 | 0.0 | 0.00 | 0.30 | 0.00 | 85 | 1013.2 |
| 20260507091003 | 15 | 237 | 0.0 | 0.0 | 0.00 | 0.30 | 0.00 | 84 | 1013.1 |
| 20260507090004 | 15 | 237 | 0.0 | 0.0 | 0.00 | 0.30 | 0.00 | 83 | 1012.4 |
| 20260507085503 | 15 | 237 | 0.0 | 0.0 | 0.00 | 0.30 | 0.00 | 83 | 1012.4 |
| 20260507085003 | 15 | 237 | 1.6 | 4.8 | 0.00 | 0.30 | 0.00 | 82 | 1012.7 |
| 20260507084503 | 15 | 257 | 0.0 | 0.0 | 0.00 | 0.30 | 0.00 | 83 | 1012.6 |
| 20260507084003 | 15 | 257 | 0.0 | 4.8 | 0.00 | 0.30 | 0.00 | 84 | 1013.0 |
| 20260507083503 | 15 | 306 | 1.6 | 8.0 | 0.00 | 0.30 | 0.00 | 85 | 1013.0 |
| 20260507082503 | 15 | 253 | 1.6 | 4.8 | 0.00 | 0.30 | 0.00 | 86 | 1013.0 |
| 20260507082003 | 15 | 231 | 4.8 | 4.8 | 0.00 | 0.30 | 0.00 | 85 | 1013.0 |
| 20260507081503 | 15 | 233 | 0.0 | 3.2 | 0.00 | 0.30 | 0.00 | 86 | 1013.0 |
| 20260507081003 | 15 | 270 | 1.6 | 3.2 | 0.00 | 0.30 | 0.00 | 85 | 1013.0 |
| 20260507080503 | 15 | 284 | 0.0 | 3.2 | 0.00 | 0.30 | 0.00 | 86 | 1013.0 |
| 20260507080003 | 15 | 295 | 6.4 | 4.8 | 0.00 | 0.30 | 0.00 | 86 | 1013.3 |
| 20260507074504 | 15 | 274 | 0.0 | 0.0 | 0.00 | 0.30 | 0.00 | 85 | 1013.2 |
| 20260507074004 | 15 | 274 | 0.0 | 0.0 | 0.00 | 0.30 | 0.00 | 85 | 1013.3 |
| 20260507073503 | 15 | 274 | 0.0 | 0.0 | 0.00 | 0.30 | 0.00 | 85 | 1013.3 |
| 20260507073003 | 15 | 274 | 0.0 | 0.0 | 0.00 | 0.30 | 0.00 | 85 | 1013.1 |
| 20260507072003 | 15 | 274 | 0.0 | 0.0 | 0.00 | 0.30 | 0.00 | 85 | 1013.2 |
| 20260507071504 | 15 | 274 | 0.0 | 0.0 | 0.00 | 0.30 | 0.00 | 84 | 1013.1 |
| 20260507071004 | 15 | 274 | 1.6 | 8.0 | 0.00 | 0.30 | 0.00 | 83 | 1012.8 |
| 20260507070005 | 16 | 291 | 0.0 | 9.7 | 0.00 | 0.30 | 0.00 | 85 | 1012.8 |
| 20260507065503 | 16 | 249 | 1.6 | 8.0 | 0.00 | 0.30 | 0.00 | 86 | 1013.2 |
| 20260507065003 | 15 | 326 | 0.0 | 4.8 | 0.00 | 0.30 | 0.00 | 87 | 1012.7 |
| 20260507064503 | 16 | 220 | 4.8 | 12.9 | 0.00 | 0.30 | 0.00 | 87 | 1012.8 |
| 20260507063503 | 15 | 359 | 6.4 | 19.3 | 0.00 | 0.30 | 0.00 | 86 | 1013.1 |